Weather History for Stockton, CA

Change the Weather History Date:

Friday, March 22, 2013

  Actual Average Record
Temperature  
Mean Temperature 56 °F -  
Max Temperature 67 °F 67 °F 78 °F (1997)
Min Temperature 45 °F 43 °F 35 °F (1987)
Degree Days  
Heating Degree Days 9 10  
Month to date heating degree days 178 240  
Since 1 July heating degree days 2181 2302  
Cooling Degree Days 0 0  
Month to date cooling degree days 0 0  
Year to date cooling degree days 0 0  
Growing Degree Days 6 (Base 50)    
Moisture  
Dew Point 25 °F    
Average Humidity 31    
Maximum Humidity 46    
Minimum Humidity 15    
Precipitation  
Precipitation 0.00 in 0.06 in 1.09 in (2005)
Month to date precipitation 0.25 1.64  
Year to date precipitation 1.72 6.92  
Since 1 July precipitation 8.84 11.95  
Snow  
Snow 0.00 in - - ()
Month to date snowfall 0.0  
Since 1 July snowfall 0.0  
Snow Depth -    
Sea Level Pressure  
Sea Level Pressure 30.04 in    
Wind  
Wind Speed 17 mph (NW)    
Max Wind Speed 28 mph    
Max Gust Speed 133 mph    
Visibility 10 miles    
Events      
T = Trace of Precipitation, MM = Missing Value Source: NWS Daily Summary

Daily Weather History Graph

Daily Weather History Graph

Search for Another Location

Airport:

Trip Planner

Search our weather history database for the weather conditions in past years. The results will help you decide how hot, cold, wet, or windy it might be!

Date:

Astronomy

Mar. 22, 2013 Rise Set
Actual Time 7:04 AM PDT 7:18 PM PDT
Civil Twilight 6:38 AM PDT 7:45 PM PDT
Nautical Twilight 6:07 AM PDT 8:16 PM PDT
Astronomical Twilight 5:36 AM PDT 8:47 PM PDT
Moon 2:55 PM PDT (3/22) 4:04 AM PDT (3/22)
Length of Visible Light 13h 06m
Length of Day
12h 14m
Waxing Gibbous, 78% of the Moon is Illuminated
Mar 22
Waxing Gibbous
Mar 27
Full
Apr 2
Last Quarter
Apr 10
New
Apr 18
First Quarter

Hourly Weather History & Observations

Time (PDT) Temp. Windchill Dew Point Humidity Pressure Visibility Wind Dir Wind Speed Gust Speed Precip Events Conditions
12:55 AM 53.1 °F - 28.9 °F 40% 29.99 in 10.0 mi NW 17.3 mph - N/A   Clear
1:55 AM 52.0 °F - 28.9 °F 41% 30.00 in 10.0 mi NW 18.4 mph 26.5 mph N/A   Clear
2:55 AM 51.1 °F - 30.0 °F 44% 30.01 in 10.0 mi NNW 19.6 mph - N/A   Clear
3:55 AM 50.0 °F - 28.0 °F 43% 30.00 in 10.0 mi NW 13.8 mph - N/A   Clear
4:55 AM 48.9 °F - 27.0 °F 43% 30.01 in 10.0 mi NW 16.1 mph - N/A   Clear
5:55 AM 46.9 °F - 26.1 °F 44% 30.03 in 10.0 mi NNW 15.0 mph 20.7 mph N/A   Clear
6:55 AM 46.0 °F 40.2 °F 26.1 °F 46% 30.04 in 10.0 mi NW 12.7 mph - N/A   Clear
7:55 AM 46.0 °F 39.6 °F 27.0 °F 47% 30.05 in 10.0 mi NW 15.0 mph - N/A   Partly Cloudy
8:55 AM 48.9 °F - 28.9 °F 46% 30.06 in 10.0 mi NNW 13.8 mph - N/A   Clear
9:55 AM 54.0 °F - 27.0 °F 35% 30.07 in 10.0 mi NNW 16.1 mph - N/A   Clear
10:55 AM 59.0 °F - 26.1 °F 28% 30.07 in 10.0 mi NNW 18.4 mph 25.3 mph N/A   Clear
11:55 AM 63.0 °F - 21.9 °F 21% 30.07 in 10.0 mi NNW 20.7 mph 27.6 mph N/A   Clear
12:55 PM 64.0 °F - 23.0 °F 21% 30.06 in 10.0 mi NNW 20.7 mph - N/A   Clear
1:55 PM 66.9 °F - 21.9 °F 18% 30.05 in 10.0 mi NW 25.3 mph 29.9 mph N/A   Clear
2:55 PM 66.0 °F - 19.9 °F 17% 30.03 in 10.0 mi NNW 25.3 mph 32.2 mph N/A   Clear
3:55 PM 66.0 °F - 19.0 °F 17% 30.02 in 10.0 mi North 19.6 mph 27.6 mph N/A   Clear
4:55 PM 66.0 °F - 18.0 °F 16% 30.01 in 10.0 mi NNW 19.6 mph 27.6 mph N/A   Clear
5:55 PM 64.0 °F - 19.9 °F 18% 30.00 in 10.0 mi NNW 18.4 mph - N/A   Clear
6:55 PM 61.0 °F - 21.0 °F 21% 30.02 in 10.0 mi NNW 15.0 mph - N/A   Clear
7:55 PM 55.9 °F - 25.0 °F 30% 30.03 in 10.0 mi NNW 6.9 mph - N/A   Clear
8:55 PM 51.1 °F - 24.1 °F 35% 30.04 in 10.0 mi WNW 8.1 mph - N/A   Clear
9:55 PM 50.0 °F - 30.0 °F 46% 30.06 in 10.0 mi WNW 9.2 mph - N/A   Clear
10:55 PM 48.9 °F - 28.9 °F 46% 30.06 in 10.0 mi WNW 11.5 mph - N/A   Clear
11:55 PM 48.0 °F - 28.9 °F 48% 30.06 in 10.0 mi WNW 10.4 mph - N/A   Clear